Retour au catalogue

WENWU 01

ActifScienceSSO
NORAD 69539·PAYLOAD·🇨🇳 China
Ce nom de satellite n'a pas encore été confirmé par des sources officielles.

Lancé Jun 15, 2026 depuis Jiuquan Satellite Launch Center

Loading…

Prochains Passages (prochaines 24 heures)

TLE

FraisSource: Space-Track

Époque: Sep 14, 2026, 15:14 UTC

1 69539U 26134B   26257.63519650  .00003314  00000-0  21489-3 0  9993
2 69539  97.6904 328.0025 0015180 330.8132  29.2246 15.08724519 13791

Suivez WENWU 01 en temps réel avec AllMySat

Download on the App Store